• In Netherlands
  • List of Countries
  • For 7 days
  • Water Temperature
  • Satellite Maps
  • Weather Map
  • Weather Widgets
  • user-avatar
    Login

    Hourly Weather Malanville

    Today, 20 January, Friday

    Time Temperature Precipitation Wind Pressure Humidity
    00:00 +24°C° 0 mm 2 mps 743 mmHg 16%
    01:00 +24°C° 0 mm 2 mps 743 mmHg 16%
    02:00 +23°C° 0 mm 2 mps 743 mmHg 16%
    03:00 +23°C° 0 mm 2 mps 743 mmHg 17%
    04:00 +21°C° 0 mm 2 mps 743 mmHg 17%
    05:00 +21°C° 0 mm 2 mps 743 mmHg 18%
    06:00 +21°C° 0 mm 2 mps 743 mmHg 18%
    07:00 +25°C° 0 mm 3 mps 744 mmHg 16%
    08:00 +28°C° 0 mm 3 mps 744 mmHg 13%
    09:00 +32°C° 0 mm 4 mps 744 mmHg 11%
    10:00 +35°C° 0 mm 4 mps 744 mmHg 10%
    11:00 +38°C° 0 mm 4 mps 743 mmHg 8%
    12:00 +41°C° 0 mm 4 mps 743 mmHg 7%
    13:00 +42°C° 0 mm 3 mps 743 mmHg 8%
    14:00 +43°C° 0 mm 3 mps 742 mmHg 8%
    15:00 +42°C° 0 mm 2 mps 741 mmHg 8%
    16:00 +38°C° 0 mm 2 mps 741 mmHg 11%
    17:00 +34°C° 0 mm 2 mps 741 mmHg 14%
    18:00 +28°C° 0 mm 1 mps 740 mmHg 17%
    19:00 +28°C° 0 mm 2 mps 741 mmHg 17%
    20:00 +28°C° 0 mm 2 mps 741 mmHg 17%
    21:00 +28°C° 0 mm 2 mps 742 mmHg 16%
    22:00 +28°C° 0 mm 2 mps 742 mmHg 17%
    23:00 +27°C° 0 mm 2 mps 742 mmHg 18%

    Tomorrow, 21 January, Saturday

    Time Temperature Precipitation Wind Pressure Humidity
    00:00 +26°C° 0 mm 2 mps 742 mmHg 20%
    01:00 +26°C° 0 mm 2 mps 741 mmHg 20%
    02:00 +25°C° 0 mm 2 mps 741 mmHg 20%
    03:00 +25°C° 0 mm 2 mps 741 mmHg 21%
    04:00 +24°C° 0 mm 2 mps 741 mmHg 22%
    05:00 +24°C° 0 mm 2 mps 742 mmHg 23%
    06:00 +23°C° 0 mm 2 mps 742 mmHg 25%
    07:00 +26°C° 0 mm 2 mps 742 mmHg 21%
    08:00 +30°C° 0 mm 2 mps 743 mmHg 16%
    09:00 +34°C° 0 mm 3 mps 744 mmHg 12%
    10:00 +37°C° 0 mm 3 mps 743 mmHg 11%
    11:00 +40°C° 0 mm 3 mps 743 mmHg 9%
    12:00 +43°C° 0 mm 3 mps 742 mmHg 7%
    13:00 +43°C° 0 mm 2 mps 741 mmHg 7%
    14:00 +43°C° 0 mm 2 mps 740 mmHg 7%
    15:00 +44°C° 0 mm 1 mps 740 mmHg 7%
    16:00 +39°C° 0 mm 1 mps 740 mmHg 10%
    17:00 +33°C° 0 mm 1 mps 740 mmHg 14%
    18:00 +26°C° 0 mm 0 mps 740 mmHg 17%
    19:00 +27°C° 0 mm 1 mps 740 mmHg 18%
    20:00 +27°C° 0 mm 1 mps 741 mmHg 18%
    21:00 +26°C° 0 mm 1 mps 741 mmHg 19%
    22:00 +26°C° 0 mm 1 mps 741 mmHg 19%
    23:00 +25°C° 0 mm 1 mps 741 mmHg 20%

    Day after tomorrow, 22 January, Sunday

    Time Temperature Precipitation Wind Pressure Humidity
    00:00 +25°C° 0 mm 1 mps 741 mmHg 20%
    01:00 +25°C° 0 mm 1 mps 741 mmHg 20%
    02:00 +25°C° 0 mm 2 mps 741 mmHg 20%
    03:00 +25°C° 0 mm 2 mps 741 mmHg 20%
    04:00 +25°C° 0 mm 2 mps 741 mmHg 22%
    05:00 +24°C° 0 mm 2 mps 742 mmHg 25%
    06:00 +24°C° 0 mm 2 mps 742 mmHg 27%
    07:00 +27°C° 0 mm 2 mps 743 mmHg 24%
    08:00 +29°C° 0 mm 2 mps 744 mmHg 21%
    09:00 +32°C° 0 mm 2 mps 744 mmHg 18%
    10:00 +36°C° 0 mm 2 mps 744 mmHg 15%
    11:00 +39°C° 0 mm 2 mps 743 mmHg 12%
    12:00 +41°C° 0 mm 2 mps 743 mmHg 9%
    13:00 +42°C° 0 mm 2 mps 742 mmHg 9%
    14:00 +42°C° 0 mm 2 mps 741 mmHg 8%
    15:00 +43°C° 0 mm 2 mps 740 mmHg 8%
    16:00 +39°C° 0 mm 2 mps 740 mmHg 11%
    17:00 +35°C° 0 mm 2 mps 740 mmHg 13%
    18:00 +31°C° 0 mm 2 mps 741 mmHg 16%
    19:00 +30°C° 0 mm 2 mps 741 mmHg 16%
    20:00 +29°C° 0 mm 2 mps 742 mmHg 17%
    21:00 +29°C° 0 mm 2 mps 742 mmHg 18%
    22:00 +28°C° 0 mm 2 mps 742 mmHg 19%
    23:00 +27°C° 0 mm 2 mps 743 mmHg 19%

    23 January, Monday

    Time Temperature Precipitation Wind Pressure Humidity
    00:00 +26°C° 0 mm 2 mps 743 mmHg 20%
    01:00 +26°C° 0 mm 2 mps 743 mmHg 21%
    02:00 +25°C° 0 mm 2 mps 742 mmHg 22%
    03:00 +24°C° 0 mm 2 mps 742 mmHg 22%
    04:00 +23°C° 0 mm 2 mps 743 mmHg 25%
    05:00 +21°C° 0 mm 1 mps 743 mmHg 27%
    06:00 +20°C° 0 mm 1 mps 744 mmHg 29%
    07:00 +24°C° 0 mm 1 mps 745 mmHg 24%
    08:00 +27°C° 0 mm 2 mps 745 mmHg 20%
    09:00 +30°C° 0 mm 2 mps 746 mmHg 15%
    10:00 +34°C° 0 mm 2 mps 746 mmHg 14%
    11:00 +36°C° 0 mm 3 mps 745 mmHg 12%
    12:00 +38°C° 0 mm 3 mps 744 mmHg 10%
    13:00 +39°C° 0 mm 3 mps 743 mmHg 10%
    14:00 +39°C° 0 mm 3 mps 743 mmHg 9%
    15:00 +40°C° 0 mm 3 mps 742 mmHg 9%
    16:00 +37°C° 0 mm 3 mps 742 mmHg 11%
    17:00 +34°C° 0 mm 2 mps 742 mmHg 13%
    18:00 +31°C° 0 mm 2 mps 742 mmHg 14%
    19:00 +30°C° 0 mm 2 mps 743 mmHg 15%
    20:00 +29°C° 0 mm 2 mps 744 mmHg 15%
    21:00 +28°C° 0 mm 2 mps 744 mmHg 15%
    22:00 +27°C° 0 mm 2 mps 744 mmHg 16%
    23:00 +26°C° 0 mm 2 mps 744 mmHg 16%

    24 January, Tuesday

    Time Temperature Precipitation Wind Pressure Humidity
    00:00 +26°C° 0 mm 2 mps 744 mmHg 16%
    01:00 +25°C° 0 mm 2 mps 744 mmHg 17%
    02:00 +24°C° 0 mm 3 mps 743 mmHg 18%
    03:00 +24°C° 0 mm 3 mps 743 mmHg 18%
    04:00 +23°C° 0 mm 2 mps 744 mmHg 18%
    05:00 +21°C° 0 mm 2 mps 744 mmHg 17%
    06:00 +20°C° 0 mm 2 mps 744 mmHg 17%
    07:00 +24°C° 0 mm 2 mps 745 mmHg 14%
    08:00 +27°C° 0 mm 2 mps 745 mmHg 11%
    09:00 +30°C° 0 mm 2 mps 746 mmHg 9%
    10:00 +34°C° 0 mm 2 mps 745 mmHg 8%
    11:00 +37°C° 0 mm 2 mps 745 mmHg 7%
    12:00 +40°C° 0 mm 2 mps 744 mmHg 6%
    13:00 +40°C° 0 mm 2 mps 743 mmHg 7%
    14:00 +41°C° 0 mm 2 mps 742 mmHg 7%
    15:00 +41°C° 0 mm 2 mps 742 mmHg 7%
    16:00 +38°C° 0 mm 2 mps 742 mmHg 9%
    17:00 +35°C° 0 mm 2 mps 742 mmHg 10%
    18:00 +31°C° 0 mm 2 mps 742 mmHg 12%
    19:00 +30°C° 0 mm 2 mps 743 mmHg 12%
    20:00 +29°C° 0 mm 3 mps 744 mmHg 13%
    21:00 +28°C° 0 mm 3 mps 744 mmHg 13%
    22:00 +27°C° 0 mm 3 mps 744 mmHg 13%
    23:00 +26°C° 0 mm 3 mps 744 mmHg 13%

    25 January, Wednesday

    Time Temperature Precipitation Wind Pressure Humidity
    00:00 +25°C° 0 mm 3 mps 744 mmHg 13%
    01:00 +25°C° 0 mm 3 mps 744 mmHg 12%
    02:00 +24°C° 0 mm 3 mps 743 mmHg 11%
    03:00 +22°C° 0 mm 3 mps 743 mmHg 10%
    04:00 +21°C° 0 mm 3 mps 743 mmHg 9%
    05:00 +21°C° 0 mm 2 mps 744 mmHg 8%
    06:00 +20°C° 0 mm 2 mps 744 mmHg 7%
    07:00 +24°C° 0 mm 3 mps 745 mmHg 6%
    08:00 +26°C° 0 mm 3 mps 745 mmHg 5%
    09:00 +29°C° 0 mm 3 mps 746 mmHg 4%
    10:00 +33°C° 0 mm 3 mps 746 mmHg 4%
    11:00 +36°C° 0 mm 3 mps 745 mmHg 4%
    12:00 +39°C° 0 mm 2 mps 744 mmHg 4%
    13:00 +39°C° 0 mm 2 mps 744 mmHg 4%
    14:00 +40°C° 0 mm 2 mps 743 mmHg 5%
    15:00 +41°C° 0 mm 2 mps 742 mmHg 5%
    16:00 +38°C° 0 mm 2 mps 742 mmHg 7%
    17:00 +34°C° 0 mm 2 mps 742 mmHg 8%
    18:00 +30°C° 0 mm 2 mps 743 mmHg 10%
    19:00 +29°C° 0 mm 2 mps 743 mmHg 10%
    20:00 +28°C° 0 mm 2 mps 744 mmHg 11%
    21:00 +27°C° 0 mm 3 mps 744 mmHg 11%
    22:00 +26°C° 0 mm 3 mps 744 mmHg 11%
    23:00 +26°C° 0 mm 3 mps 744 mmHg 11%
    Show more